Regional Weather Roundup
Issued by NWS

Home | Current Version | Previous Version | Text Only | Print | Product List | Glossary On
Versions: 1 2 3 4 5 6 7 8 9 10 11 12 13 14 15 16 17 18 19 20 21 22 23 24 25 26 27 28 29 30 31 32 33 34 35 36 37 38 39 40 41 42 43 44 45 46 47 48 49 50
000
ASUS44 KOUN 270210
RWROK

WEATHER ROUNDUP FOR OKLAHOMA
NATIONAL WEATHER SERVICE NORMAN OK
900 PM CDT FRI MAY 26 2017

NOTE: "FAIR" INDICATES FEW OR NO CLOUDS BELOW 12,000 FEET WITH NO
      SIGNIFICANT WEATHER AND/OR OBSTRUCTIONS TO VISIBILITY.

OKZ001>007-009>012-014-015-017-270300-
NORTHWEST OKLAHOMA AND THE PANHANDLE

CITY           SKY/WX    TMP DP  RH WIND       PRES   REMARKS
GAGE           CLEAR     75  59  57 E7        29.81F
GUYMON         CLEAR     75  54  47 SE10      29.80S
ENID/WOODRING  CLEAR     77  66  69 E18       29.76R
$$

OKZ016-021>023-033>039-044-045-270300-
SOUTHWEST OKLAHOMA

CITY           SKY/WX    TMP DP  RH WIND       PRES   REMARKS
LAWTON/REGL    CLEAR     83  68  60 E3          N/A
FREDERICK      CLEAR     83  63  50 SE7       29.72R HAZE
CLINTON        CLEAR     80  62  54 NE6       29.82R
HOBART         CLEAR     80  65  59 NE7       29.79R
$$

OKZ018>020-024>031-270300-
CENTRAL OKLAHOMA

CITY           SKY/WX    TMP DP  RH WIND       PRES   REMARKS
OKLAHOMA CITY  PTCLDY    80  66  62 E3        29.78R
OKC/WILEY POST CLEAR     82  69  64 NE5       29.78R
STILLWATER     CLEAR     75  67  76 NE6       29.77R
GUTHRIE        CLEAR     78  70  76 E3        29.77R
$$

OKZ008-013-054>072-270300-
NORTHEAST OKLAHOMA

CITY           SKY/WX    TMP DP  RH WIND       PRES   REMARKS
TULSA          PTCLDY    83  71  67 NE5       29.74R
TULSA/JONES    CLEAR     80  69  69 N3        29.75R
PONCA CITY     CLEAR     79  63  57 E6        29.77R
BARTLESVILLE   CLEAR     73  68  84 CALM      29.78R
MUSKOGEE       MOCLDY    83  75  77 S8        29.75R HX  90
$$

OKZ032-040>043-046>053-073>077-270300-
SOUTH CENTRAL/SOUTHEAST OKLAHOMA

CITY           SKY/WX    TMP DP  RH WIND       PRES   REMARKS
ARDMORE/DWNTWN CLOUDY    86  72  62 SW5       29.76R HX  92
MCALESTER      CLOUDY    85  74  69 VRB6      29.77R HX  92
$$





USA.gov is the U.S. government's official web portal to all federal, state and local government web resources and services.